EW8001 Weather Reports


Display with metric or nautical units.
time (UTC)temp
F
wind
direction
speed
MPH
gust
MPH
rain 1hr
in
rain 24hr
in
rain mn
in
humidity
%
barometer
mb
20190117164327 34 188 5.0 9.0 0.00 0.00 0.00 57 1028.2
20190117163825 35 205 6.0 9.0 0.00 0.00 0.00 57 1028.3
20190117163328 35 159 1.0 5.0 0.00 0.00 0.00 60 1028.3
20190117162829 35 255 2.0 5.0 0.00 0.00 0.00 59 1028.3
20190117162334 35 200 3.0 5.0 0.00 0.00 0.00 59 1028.4
20190117161834 35 148 1.0 7.0 0.00 0.00 0.00 60 1028.6
20190117161335 35 223 4.0 7.0 0.00 0.00 0.00 59 1028.7
20190117160836 35 239 3.0 7.0 0.00 0.00 0.00 59 1028.8
20190117160328 35 253 1.0 5.0 0.00 0.00 0.00 62 1028.9
20190117155829 35 230 2.0 5.0 0.00 0.00 0.00 61 1028.9
20190117155330 35 322 1.0 3.0 0.00 0.00 0.00 62 1028.9
20190117154830 35 163 1.0 2.0 0.00 0.00 0.00 62 1029.0
20190117154331 35 169 0.0 3.0 0.00 0.00 0.00 62 1028.9
20190117153832 34 146 1.0 3.0 0.00 0.00 0.00 62 1028.9
20190117153335 34 153 2.0 3.0 0.00 0.00 0.00 62 1028.8
20190117152835 34 126 2.0 4.0 0.00 0.00 0.00 61 1028.9
20190117152335 34 95 2.0 4.0 0.00 0.00 0.00 61 1028.9
20190117151340 34 137 0.0 3.0 0.00 0.00 0.00 63 1028.8
20190117150840 34 136 1.0 5.0 0.00 0.00 0.00 63 1028.7
20190117150334 34 94 1.0 5.0 0.00 0.00 0.00 63 1028.7
20190117145835 34 105 2.0 4.0 0.00 0.00 0.00 64 1028.6
20190117145336 34 118 1.0 4.0 0.00 0.00 0.00 64 1028.6
20190117144837 34 115 1.0 4.0 0.00 0.00 0.00 64 1028.6
20190117144338 34 86 1.0 4.0 0.00 0.00 0.00 64 1028.4
20190117143838 34 179 1.0 3.0 0.00 0.00 0.00 64 1028.6
20190117143339 33 43 1.0 3.0 0.00 0.00 0.00 64 1028.6
20190117142838 33 69 1.0 3.0 0.00 0.00 0.00 65 1028.6
20190117142341 33 53 1.0 5.0 0.00 0.00 0.00 64 1028.4
20190117141825 33 122 2.0 5.0 0.00 0.00 0.00 63 1028.3
20190117141324 33 14 1.0 4.0 0.00 0.00 0.00 63 1028.3
20190117140824 33 51 1.0 4.0 0.00 0.00 0.00 63 1028.4
20190117140339 33 26 1.0 5.0 0.00 0.00 0.00 63 1028.4
20190117135838 33 32 2.0 5.0 0.00 0.00 0.00 62 1028.6
20190117135338 33 26 1.0 4.0 0.00 0.00 0.00 62 1028.6
20190117134838 33 36 1.0 4.0 0.00 0.00 0.00 61 1028.6
20190117134339 32 349 2.0 5.0 0.00 0.00 0.00 62 1028.6
20190117133840 32 13 1.0 5.0 0.00 0.00 0.00 62 1028.6
20190117133342 32 48 2.0 5.0 0.00 0.00 0.00 63 1028.4
20190117132841 32 346 3.0 5.0 0.00 0.00 0.00 64 1028.3
20190117132342 32 48 2.0 4.0 0.00 0.00 0.00 63 1028.3
20190117131823 32 28 1.0 4.0 0.00 0.00 0.00 63 1028.4
20190117131328 32 342 1.0 3.0 0.00 0.00 0.00 65 1028.2
20190117130828 32 90 0.0 4.0 0.00 0.00 0.00 65 1028.3
20190117130342 32 141 1.0 4.0 0.00 0.00 0.00 65 1028.2
20190117125842 32 121 2.0 4.0 0.00 0.01 0.00 65 1028.2
20190117125343 32 124 1.0 4.0 0.00 0.01 0.00 65 1028.2
20190117124823 32 122 1.0 2.0 0.00 0.01 0.00 65 1028.3
20190117124324 32 48 0.0 4.0 0.00 0.01 0.00 66 1028.4
20190117123824 32 34 2.0 4.0 0.00 0.01 0.00 65 1028.3
20190117123326 32 78 0.0 2.0 0.00 0.01 0.00 65 1028.4
20190117122826 32 13 1.0 2.0 0.00 0.01 0.00 65 1028.3
20190117122326 33 62 0.0 2.0 0.00 0.01 0.00 65 1028.4
20190117121827 33 22 1.0 3.0 0.00 0.01 0.00 65 1028.4
20190117121328 33 57 0.0 2.0 0.00 0.01 0.00 65 1028.5
20190117120832 33 57 0.0 2.0 0.00 0.01 0.00 65 1028.4
20190117120326 33 61 0.0 3.0 0.00 0.01 0.00 66 1028.4
20190117115826 33 55 1.0 3.0 0.00 0.01 0.00 66 1028.6
20190117115327 33 17 1.0 3.0 0.00 0.01 0.00 65 1028.4
20190117114827 33 10 0.0 3.0 0.00 0.01 0.00 66 1028.3
20190117114327 33 43 0.0 2.0 0.00 0.01 0.00 66 1028.3
20190117113826 33 34 0.0 2.0 0.00 0.01 0.00 66 1028.2
20190117113327 33 66 0.0 2.0 0.00 0.01 0.00 67 1028.1
20190117112825 33 61 0.0 2.0 0.00 0.01 0.00 66 1028.0
20190117112325 33 38 0.0 2.0 0.00 0.01 0.00 67 1027.9
20190117111826 33 63 0.0 1.0 0.00 0.01 0.00 67 1027.9
20190117111327 33 70 0.0 1.0 0.00 0.01 0.00 68 1027.8
20190117110828 33 67 0.0 1.0 0.00 0.01 0.00 68 1027.8
20190117110339 33 57 0.0 2.0 0.00 0.01 0.00 69 1027.8
20190117105823 33 63 0.0 2.0 0.00 0.01 0.00 69 1027.8
20190117105344 33 57 0.0 1.0 0.00 0.01 0.00 69 1027.8
20190117104824 33 57 0.0 1.0 0.00 0.01 0.00 69 1027.7
20190117104325 33 58 0.0 3.0 0.00 0.01 0.00 70 1027.6
20190117103827 33 101 0.0 3.0 0.00 0.01 0.00 69 1027.4
20190117103328 33 141 2.0 3.0 0.00 0.01 0.00 71 1027.3
20190117102824 33 129 1.0 3.0 0.00 0.01 0.00 70 1027.5
20190117102325 33 123 1.0 3.0 0.00 0.01 0.00 71 1027.7
20190117101826 34 63 0.0 1.0 0.00 0.01 0.00 71 1027.8
20190117101327 34 65 0.0 2.0 0.00 0.01 0.00 71 1027.8
20190117100827 34 67 0.0 2.0 0.00 0.01 0.00 71 1027.7
20190117100341 34 43 0.0 2.0 0.00 0.01 0.00 71 1027.7
20190117095826 34 69 0.0 2.0 0.00 0.01 0.00 71 1027.4
20190117095325 34 124 1.0 2.0 0.00 0.01 0.00 71 1027.4
20190117094825 34 38 0.0 3.0 0.00 0.01 0.00 70 1027.4
20190117094327 34 36 1.0 3.0 0.00 0.01 0.00 70 1027.4
20190117093829 34 35 1.0 3.0 0.00 0.01 0.00 69 1027.5
20190117093329 34 17 2.0 3.0 0.00 0.01 0.00 69 1027.4
20190117092829 34 19 1.0 2.0 0.00 0.01 0.00 69 1027.4
20190117092329 34 17 1.0 4.0 0.00 0.01 0.00 69 1027.6
20190117091830 34 11 2.0 4.0 0.00 0.01 0.00 69 1027.4
20190117091331 34 360 1.0 3.0 0.00 0.01 0.00 69 1027.5
20190117090833 34 317 1.0 3.0 0.00 0.01 0.00 69 1027.5
20190117090325 35 355 2.0 3.0 0.00 0.01 0.00 69 1027.5
20190117085824 35 5 1.0 4.0 0.00 0.01 0.00 69 1027.4
20190117085330 35 350 2.0 4.0 0.00 0.01 0.00 69 1027.4
20190117084332 35 355 2.0 3.0 0.00 0.01 0.00 69 1027.4
20190117083833 35 355 1.0 3.0 0.00 0.01 0.00 70 1027.5
20190117083334 35 313 2.0 3.0 0.00 0.01 0.00 70 1027.5
20190117082833 34 305 1.0 3.0 0.00 0.01 0.00 71 1027.7
20190117082333 34 298 2.0 3.0 0.00 0.01 0.00 71 1027.7
20190117081834 34 305 2.0 3.0 0.00 0.01 0.00 73 1027.7
20190117081334 34 301 1.0 2.0 0.00 0.01 0.00 73 1027.7
20190117080835 34 355 1.0 2.0 0.00 0.01 0.00 73 1027.5
20190117080329 34 56 0.0 2.0 0.00 0.01 0.00 74 1027.5
20190117075828 34 63 0.0 2.0 0.00 0.01 0.00 73 1027.5
20190117075329 35 74 0.0 0.0 0.00 0.01 0.00 73 1027.4
20190117074835 35 77 0.0 0.0 0.00 0.01 0.00 73 1027.3
20190117074335 35 116 0.0 0.0 0.00 0.01 0.00 75 1027.4
20190117073836 35 168 0.0 0.0 0.00 0.01 0.00 74 1027.3
20190117073336 35 150 0.0 1.0 0.00 0.01 0.00 74 1027.1
20190117072834 35 162 0.0 0.0 0.00 0.01 0.00 73 1027.1
20190117072335 35 150 0.0 0.0 0.00 0.01 0.00 74 1027.0
20190117071836 34 148 0.0 1.0 0.00 0.01 0.00 74 1027.0
20190117071337 35 157 0.0 1.0 0.00 0.01 0.00 74 1026.9
20190117070838 35 192 0.0 1.0 0.00 0.01 0.00 71 1026.8
20190117070331 35 178 0.0 1.0 0.00 0.01 0.00 71 1026.8
20190117065333 35 245 0.0 1.0 0.00 0.01 0.00 68 1026.8
20190117064834 35 288 0.0 3.0 0.00 0.01 0.00 69 1026.7
20190117064338 35 303 2.0 3.0 0.00 0.01 0.00 67 1026.8
20190117063839 35 312 2.0 3.0 0.00 0.01 0.00 68 1026.8
20190117063341 35 259 0.0 2.0 0.00 0.01 0.00 68 1026.8
20190117062840 35 225 0.0 2.0 0.00 0.01 0.00 69 1026.7
20190117062340 35 245 0.0 4.0 0.00 0.01 0.00 67 1026.7
20190117061840 35 293 1.0 4.0 0.00 0.01 0.00 68 1026.6
20190117061341 35 300 2.0 4.0 0.00 0.01 0.00 67 1026.8
20190117060336 35 276 1.0 3.0 0.00 0.01 0.00 67 1026.8
20190117055836 35 267 1.0 3.0 0.00 0.01 0.00 67 1026.7
20190117055338 35 282 2.0 3.0 0.00 0.01 0.00 66 1026.7
20190117054839 35 266 1.0 3.0 0.00 0.01 0.00 66 1026.7
20190117054324 35 294 1.0 4.0 0.00 0.01 0.00 66 1026.7
20190117053825 35 305 3.0 5.0 0.00 0.01 0.00 65 1026.7
20190117053326 35 304 2.0 4.0 0.00 0.01 0.00 66 1026.6
20190117052328 35 295 1.0 4.0 0.00 0.01 0.00 66 1026.7
20190117051828 35 309 3.0 6.0 0.00 0.01 0.00 66 1026.7
20190117051330 35 274 3.0 6.0 0.00 0.01 0.00 66 1026.7
20190117050831 35 249 2.0 5.0 0.00 0.01 0.00 65 1026.8
20190117050325 35 277 3.0 7.0 0.00 0.01 0.00 66 1026.8
20190117045825 35 306 3.0 7.0 0.00 0.01 0.01 66 1026.9
20190117045326 35 328 4.0 7.0 0.00 0.01 0.01 66 1026.9
20190117044827 35 294 3.0 7.0 0.00 0.01 0.01 65 1027.1
20190117044327 35 268 1.0 4.0 0.00 0.01 0.01 66 1027.0
20190117043832 35 254 2.0 4.0 0.00 0.01 0.01 64 1027.1
20190117043334 36 284 2.0 7.0 0.00 0.01 0.01 64 1027.0
20190117042834 36 279 3.0 7.0 0.00 0.01 0.01 65 1027.0
20190117042336 36 277 1.0 8.0 0.00 0.01 0.01 65 1027.0
20190117041837 36 288 5.0 8.0 0.00 0.01 0.01 64 1027.0
20190117041336 36 265 3.0 6.0 0.00 0.01 0.01 64 1026.9
20190117040837 36 292 3.0 7.0 0.00 0.01 0.01 65 1026.8
20190117040331 36 294 3.0 9.0 0.00 0.01 0.01 65 1026.6
20190117035830 36 303 5.0 9.0 0.00 0.01 0.01 65 1026.6
20190117035331 36 335 4.0 8.0 0.00 0.01 0.01 65 1026.7
20190117034831 36 346 3.0 8.0 0.00 0.01 0.01 65 1026.7
20190117034332 36 351 4.0 8.0 0.00 0.01 0.01 64 1026.7
20190117033833 36 312 4.0 7.0 0.00 0.01 0.01 65 1026.7
20190117033339 36 305 2.0 6.0 0.00 0.01 0.01 66 1026.7
20190117032840 36 305 3.0 6.0 0.00 0.01 0.01 65 1026.7
20190117031842 36 306 4.0 9.0 0.00 0.01 0.01 65 1026.7
20190117031342 36 321 5.0 9.0 0.00 0.01 0.01 65 1026.7
20190117030842 36 284 4.0 9.0 0.00 0.01 0.01 65 1026.7
20190117030336 36 290 6.0 9.0 0.00 0.01 0.01 65 1026.6
20190117025836 36 297 4.0 7.0 0.00 0.01 0.01 66 1026.5
20190117025337 36 300 3.0 8.0 0.00 0.01 0.01 66 1026.5
20190117024838 36 301 4.0 8.0 0.00 0.01 0.01 66 1026.5
20190117024340 36 273 3.0 6.0 0.00 0.01 0.01 66 1026.3
20190117023840 36 280 2.0 5.0 0.00 0.01 0.01 66 1026.2
20190117023326 36 302 3.0 7.0 0.00 0.01 0.01 66 1026.1
20190117022825 36 338 4.0 7.0 0.00 0.01 0.01 66 1026.0
20190117022326 36 304 3.0 5.0 0.00 0.01 0.01 66 1026.0
20190117021826 36 271 3.0 5.0 0.00 0.01 0.01 65 1026.0
20190117021327 36 306 3.0 7.0 0.00 0.01 0.01 65 1026.0
20190117020828 36 298 3.0 8.0 0.00 0.01 0.01 65 1026.0
20190117020340 36 265 4.0 9.0 0.00 0.01 0.01 65 1026.0
20190117015839 36 303 5.0 9.0 0.00 0.01 0.01 65 1025.9
20190117015339 36 284 5.0 9.0 0.00 0.01 0.01 65 1025.9
20190117014840 36 290 5.0 9.0 0.00 0.01 0.01 65 1025.8
20190117014342 36 294 3.0 7.0 0.00 0.01 0.01 65 1025.9
20190117013843 36 280 4.0 8.0 0.00 0.01 0.01 65 1025.8
20190117013325 36 247 5.0 11.0 0.00 0.01 0.01 65 1025.8
20190117012829 36 288 6.0 11.0 0.00 0.01 0.01 65 1025.7
20190117012330 36 296 6.0 12.0 0.00 0.01 0.01 64 1025.7
20190117011830 36 298 7.0 12.0 0.00 0.01 0.01 64 1025.7
20190117011330 36 286 3.0 8.0 0.00 0.01 0.01 64 1025.7
20190117010831 36 282 6.0 8.0 0.00 0.01 0.01 64 1025.7
20190117010326 36 261 3.0 8.0 0.00 0.01 0.01 64 1025.7
20190117005825 36 298 4.0 9.0 0.00 0.01 0.01 64 1025.8
20190117005324 36 273 6.0 13.0 0.00 0.01 0.01 63 1025.7
20190117004824 37 288 6.0 13.0 0.00 0.01 0.01 63 1025.6
20190117004324 37 288 9.0 17.0 0.00 0.01 0.01 63 1025.6
20190117003825 37 320 8.0 14.0 0.00 0.01 0.01 63 1025.7
20190117003327 37 307 8.0 13.0 0.00 0.01 0.01 63 1025.5
20190117002827 37 342 8.0 13.0 0.00 0.01 0.01 63 1025.4
20190117002331 37 308 5.0 11.0 0.00 0.01 0.01 62 1025.4
20190117001832 37 319 5.0 12.0 0.00 0.01 0.01 62 1025.4
20190117001332 37 315 8.0 18.0 0.00 0.01 0.01 61 1025.2
20190117000834 37 293 11.0 18.0 0.00 0.01 0.01 61 1025.2
20190117000327 37 314 10.0 19.0 0.00 0.01 0.01 62 1025.1
20190116235827 37 314 8.0 19.0 0.00 0.01 0.01 63 1025.0
20190116235328 37 340 5.0 13.0 0.00 0.01 0.01 64 1024.8
20190116234828 37 323 7.0 10.0 0.00 0.01 0.01 64 1024.7
20190116234328 37 313 5.0 9.0 0.00 0.01 0.01 64 1024.6
20190116233827 37 317 7.0 9.0 0.00 0.01 0.01 64 1024.6
20190116233329 37 321 4.0 11.0 0.00 0.01 0.01 63 1024.6
20190116232828 37 319 5.0 11.0 0.00 0.01 0.01 63 1024.6
20190116232330 37 321 4.0 9.0 0.00 0.01 0.01 63 1024.6
20190116231835 37 300 6.0 12.0 0.00 0.01 0.01 63 1024.5
20190116231336 38 289 8.0 15.0 0.00 0.01 0.01 63 1024.5
20190116230836 38 302 8.0 15.0 0.00 0.01 0.01 63 1024.3
20190116230329 38 331 8.0 13.0 0.00 0.01 0.01 63 1024.2
20190116225830 38 335 7.0 14.0 0.00 0.01 0.01 64 1024.1
20190116225330 38 337 6.0 14.0 0.00 0.01 0.01 64 1024.0
20190116224830 38 296 3.0 8.0 0.00 0.01 0.01 66 1023.9
20190116224331 38 300 1.0 13.0 0.00 0.01 0.01 66 1023.8
20190116223831 38 355 5.0 13.0 0.00 0.01 0.01 66 1023.8
20190116223333 38 351 3.0 10.0 0.00 0.01 0.01 66 1023.7
20190116222833 38 350 3.0 10.0 0.00 0.01 0.01 66 1023.6
20190116222334 38 315 3.0 6.0 0.00 0.01 0.01 66 1023.5
20190116221834 38 355 4.0 8.0 0.00 0.01 0.01 66 1023.5
20190116221339 38 335 5.0 10.0 0.00 0.01 0.01 66 1023.5
20190116220839 38 12 5.0 10.0 0.00 0.01 0.01 65 1023.4
20190116220332 38 321 6.0 10.0 0.00 0.01 0.01 65 1023.3
20190116215831 38 302 6.0 10.0 0.00 0.01 0.01 65 1023.3
20190116215333 38 313 5.0 11.0 0.00 0.01 0.01 65 1023.3
20190116214833 38 300 6.0 15.0 0.00 0.01 0.01 65 1023.2
20190116214332 38 333 7.0 15.0 0.00 0.01 0.01 64 1023.2
20190116213833 38 296 9.0 14.0 0.00 0.01 0.01 63 1023.1
20190116213335 38 313 8.0 11.0 0.00 0.01 0.01 63 1023.1
20190116212834 38 304 3.0 12.0 0.00 0.01 0.01 65 1023.0
20190116212335 38 299 8.0 12.0 0.00 0.01 0.01 63 1022.9
20190116211837 38 309 6.0 9.0 0.00 0.01 0.01 63 1022.9
20190116211337 38 302 4.0 10.0 0.00 0.01 0.01 64 1022.8
20190116210842 38 295 5.0 16.0 0.00 0.01 0.01 64 1022.8
20190116210336 39 333 8.0 16.0 0.00 0.01 0.01 63 1022.7
20190116205836 38 298 7.0 15.0 0.00 0.01 0.01 63 1022.7
20190116205337 39 295 7.0 18.0 0.00 0.01 0.01 64 1022.6
20190116204838 39 300 11.0 18.0 0.00 0.01 0.01 63 1022.5
20190116204338 38 309 9.0 14.0 0.00 0.01 0.01 63 1022.4
20190116203837 38 302 9.0 15.0 0.00 0.01 0.01 63 1022.4
20190116203340 39 305 8.0 18.0 0.00 0.01 0.01 63 1022.3
20190116202840 39 330 11.0 18.0 0.00 0.01 0.01 63 1022.3
20190116201827 39 300 7.0 15.0 0.00 0.01 0.01 64 1022.0
20190116201328 39 309 7.0 16.0 0.00 0.01 0.01 64 1022.0
20190116200828 38 360 9.0 16.0 0.00 0.01 0.01 63 1022.1
20190116200340 38 296 5.0 15.0 0.00 0.01 0.01 64 1022.0
20190116195839 38 325 7.0 15.0 0.00 0.01 0.01 64 1022.0
20190116195341 39 286 8.0 14.0 0.00 0.01 0.01 64 1021.9
20190116194841 38 323 6.0 19.0 0.00 0.01 0.01 64 1021.8
20190116194341 38 291 10.0 19.0 0.00 0.01 0.01 63 1021.8
20190116193825 39 292 6.0 15.0 0.00 0.01 0.01 63 1021.8
20190116193328 38 298 10.0 15.0 0.00 0.01 0.01 63 1021.6
20190116192826 38 346 9.0 15.0 0.00 0.01 0.01 63 1021.7
20190116192328 38 291 7.0 15.0 0.00 0.01 0.01 63 1021.6
20190116191829 38 265 5.0 10.0 0.00 0.01 0.01 63 1021.5
20190116191329 38 296 5.0 13.0 0.00 0.01 0.01 64 1021.5
20190116190831 38 294 7.0 13.0 0.00 0.01 0.01 63 1021.4
20190116190325 38 315 8.0 16.0 0.00 0.01 0.01 63 1021.4
20190116185824 38 288 10.0 16.0 0.00 0.01 0.01 63 1021.4
20190116185324 38 285 9.0 15.0 0.00 0.01 0.01 63 1021.4
20190116184825 38 304 7.0 17.0 0.00 0.01 0.01 63 1021.3
20190116184325 38 298 8.0 17.0 0.00 0.01 0.01 64 1021.4
20190116183825 38 301 9.0 16.0 0.00 0.01 0.01 63 1021.3
20190116183331 38 320 10.0 16.0 0.00 0.01 0.01 64 1021.3
20190116182829 38 317 9.0 16.0 0.00 0.01 0.01 63 1021.3
20190116182330 38 306 9.0 14.0 0.00 0.01 0.01 63 1021.4
20190116181830 38 325 7.0 17.0 0.00 0.01 0.01 64 1021.2
20190116181330 38 304 10.0 17.0 0.00 0.01 0.01 64 1021.5
20190116180343 38 282 7.0 20.0 0.00 0.01 0.01 64 1021.2
20190116175843 38 285 11.0 20.0 0.00 0.01 0.01 63 1021.2
20190116175343 38 289 13.0 18.0 0.00 0.01 0.01 63 1021.2
20190116174842 38 294 10.0 14.0 0.00 0.01 0.01 64 1021.2
20190116174342 38 333 8.0 14.0 0.00 0.01 0.01 65 1021.3
20190116173843 38 313 9.0 14.0 0.00 0.01 0.01 64 1021.4
20190116173324 38 288 8.0 13.0 0.00 0.01 0.01 65 1021.3
20190116172829 37 316 9.0 15.0 0.00 0.01 0.01 65 1021.4
20190116172329 37 299 8.0 15.0 0.00 0.01 0.01 65 1021.4
20190116171830 37 282 6.0 15.0 0.00 0.01 0.01 66 1021.6
20190116170831 37 304 7.0 15.0 0.00 0.01 0.01 66 1021.8
20190116170325 37 335 6.0 13.0 0.00 0.01 0.01 66 1021.9
20190116165825 37 311 9.0 15.0 0.00 0.01 0.01 65 1021.9
20190116165326 37 302 8.0 15.0 0.00 0.01 0.01 66 1022.0
20190116164826 37 315 8.0 11.0 0.00 0.01 0.01 67 1022.0